Jackson, MN

10:40 PM CDT on May 24, 2018 (GMT -0500)
Jackson Municipal

Weather History for KMJQ - March, 2013

Change the Weather History Date:

Sunday, March 31, 2013

  Actual Average Record
Temperature  
Mean Temperature 30 °F -  
Max Temperature 37 °F 46 °F 73 °F (1999)
Min Temperature 23 °F 29 °F 17 °F (2018)
Degree Days  
Heating Degree Days 34    
Moisture  
Dew Point 25 °F    
Average Humidity 75    
Maximum Humidity 100    
Minimum Humidity 48    
Precipitation  
Precipitation 0.00 in - - ()
Sea Level Pressure  
Sea Level Pressure 29.96 in    
Wind  
Wind Speed 15 mph (NW)    
Max Wind Speed 30 mph    
Max Gust Speed 40 mph    
Visibility 8 miles    
Events Fog , Rain    
Averages and records for this station are not official NWS values.
T = Trace of Precipitation, MM = Missing Value Source: NWS Daily Summary

Daily Weather History Graph

Daily Weather History Graph

Search for Another Location

Airport or City:

Astronomy

Mar. 31, 2013 Rise Set
Actual Time 7:02 AM CDT 7:45 PM CDT
Civil Twilight 6:33 AM CDT 8:14 PM CDT
Nautical Twilight 5:59 AM CDT 8:49 PM CDT
Astronomical Twilight 5:24 AM CDT 9:25 PM CDT
Moon 12:00 AM CDT (3/31) 9:43 AM CDT (3/31)
Length of Visible Light 13h 40m
Length of Day
12h 43m
Waning Gibbous, 77% of the Moon is Illuminated
Mar 31
Waning Gibbous
Apr 2
Last Quarter
Apr 10
New
Apr 18
First Quarter
Apr 25
Full

Hourly Weather History & Observations

Time (CDT) Temp. Windchill Dew Point Humidity Pressure Visibility Wind Dir Wind Speed Gust Speed Precip Events Conditions
12:13 AM 35.6 °F 29.2 °F 33.8 °F 93% 29.91 in 0.5 mi NW 8.1 mph - N/A Fog Fog
12:32 AM 35.6 °F 30.7 °F 32.0 °F 87% 29.91 in 0.2 mi WNW 5.8 mph - N/A Fog Fog
12:52 AM 33.8 °F 26.4 °F 32.0 °F 93% 29.91 in 0.2 mi NW 9.2 mph - N/A Fog Fog
1:13 AM 33.8 °F 28.6 °F 32.0 °F 93% 29.91 in 0.2 mi NW 5.8 mph - N/A Fog Fog
1:32 AM 33.8 °F 27.0 °F 32.0 °F 93% 29.91 in 0.2 mi NW 8.1 mph - N/A Fog Fog
1:52 AM 33.8 °F 23.9 °F 32.0 °F 93% 29.92 in 0.2 mi NW 15.0 mph - N/A Rain Light Rain
2:12 AM 33.8 °F 24.3 °F 32.0 °F 93% 29.91 in 0.8 mi NW 13.8 mph 23.0 mph N/A   Overcast
2:32 AM 33.8 °F 25.3 °F 32.0 °F 93% 29.91 in 3.0 mi NW 11.5 mph - N/A   Overcast
2:53 AM 33.8 °F 24.8 °F 32.0 °F 93% 29.91 in 3.0 mi NW 12.7 mph - N/A   Overcast
3:12 AM 33.8 °F 25.8 °F 32.0 °F 93% 29.91 in 2.0 mi WNW 10.4 mph - N/A   Overcast
3:32 AM 33.8 °F 25.8 °F 32.0 °F 93% 29.91 in 1.8 mi West 10.4 mph - N/A   Overcast
3:53 AM 33.8 °F 25.8 °F 32.0 °F 93% 29.90 in 2.0 mi West 10.4 mph - N/A   Overcast
4:12 AM 33.8 °F 27.0 °F 32.0 °F 93% 29.89 in 3.0 mi West 8.1 mph - N/A   Overcast
4:32 AM 33.8 °F 26.4 °F 32.0 °F 93% 29.88 in 5.0 mi West 9.2 mph - N/A   Mostly Cloudy
4:53 AM 32.0 °F 24.8 °F 32.0 °F 100% 29.88 in 5.0 mi West 8.1 mph - N/A   Scattered Clouds
5:12 AM 32.0 °F 24.8 °F 32.0 °F 100% 29.88 in 5.0 mi West 8.1 mph - N/A   Clear
5:32 AM 32.0 °F 24.2 °F 32.0 °F 100% 29.88 in 7.0 mi West 9.2 mph - N/A   Clear
5:53 AM 33.8 °F 26.4 °F 32.0 °F 93% 29.88 in 7.0 mi West 9.2 mph - N/A   Clear
6:13 AM 33.8 °F 25.8 °F 30.2 °F 87% 29.88 in 7.0 mi West 10.4 mph - N/A   Clear
6:32 AM 33.8 °F 25.3 °F 32.0 °F 93% 29.88 in 10.0 mi West 11.5 mph - N/A   Clear
6:53 AM 33.8 °F 25.8 °F 32.0 °F 93% 29.88 in 10.0 mi West 10.4 mph - N/A   Clear
7:12 AM 33.8 °F 26.4 °F 32.0 °F 93% 29.88 in 7.0 mi West 9.2 mph - N/A   Clear
7:33 AM 33.8 °F 24.3 °F 32.0 °F 93% 29.88 in 7.0 mi West 13.8 mph - N/A   Clear
7:53 AM 33.8 °F 24.3 °F 32.0 °F 93% 29.89 in 7.0 mi WNW 13.8 mph - N/A   Clear
8:12 AM 33.8 °F 23.5 °F 32.0 °F 93% 29.88 in 10.0 mi WNW 16.1 mph 20.7 mph N/A   Clear
8:32 AM 33.8 °F 24.3 °F 30.2 °F 87% 29.89 in 10.0 mi WNW 13.8 mph 18.4 mph N/A   Clear
8:53 AM 33.8 °F 22.2 °F 30.2 °F 87% 29.89 in 10.0 mi NW 20.7 mph 26.5 mph N/A   Scattered Clouds
9:12 AM 35.6 °F 25.9 °F 30.2 °F 81% 29.90 in 10.0 mi NW 16.1 mph 23.0 mph N/A   Mostly Cloudy
9:32 AM 33.8 °F 21.6 °F 28.4 °F 81% 29.91 in 10.0 mi NW 23.0 mph 33.4 mph N/A   Overcast
9:53 AM 33.8 °F 21.9 °F 28.4 °F 81% 29.92 in 10.0 mi NW 21.9 mph 33.4 mph N/A   Overcast
10:12 AM 35.6 °F 24.2 °F 28.4 °F 75% 29.92 in 10.0 mi NW 21.9 mph 35.7 mph N/A   Overcast
10:32 AM 35.6 °F 23.4 °F 28.4 °F 75% 29.93 in 10.0 mi NW 25.3 mph 32.2 mph N/A   Overcast
10:53 AM 33.8 °F 21.0 °F 28.4 °F 81% 29.94 in 7.0 mi NW 25.3 mph 33.4 mph N/A   Overcast
11:12 AM 33.8 °F 20.5 °F 28.4 °F 81% 29.95 in 10.0 mi NW 27.6 mph 33.4 mph N/A   Overcast
11:32 AM 35.6 °F 23.7 °F 26.6 °F 70% 29.95 in 10.0 mi NW 24.2 mph 33.4 mph N/A   Overcast
11:53 AM 35.6 °F 23.7 °F 26.6 °F 70% 29.96 in 10.0 mi NW 24.2 mph 34.5 mph N/A   Mostly Cloudy
12:12 PM 35.6 °F 22.7 °F 24.8 °F 65% 29.95 in 10.0 mi NNW 28.8 mph 38.0 mph N/A   Mostly Cloudy
12:32 PM 35.6 °F 23.2 °F 24.8 °F 65% 29.96 in 10.0 mi NW 26.5 mph 33.4 mph N/A   Mostly Cloudy
12:53 PM 35.6 °F 24.0 °F 23.0 °F 60% 29.97 in 10.0 mi NNW 23.0 mph 40.3 mph N/A   Mostly Cloudy
1:12 PM 35.6 °F 23.4 °F 24.8 °F 65% 29.98 in 10.0 mi NW 25.3 mph 31.1 mph N/A   Overcast
1:32 PM 35.6 °F 24.2 °F 24.8 °F 65% 29.97 in 10.0 mi NNW 21.9 mph 35.7 mph N/A   Mostly Cloudy
1:53 PM 35.6 °F 24.0 °F 24.8 °F 65% 29.97 in 10.0 mi NW 23.0 mph 31.1 mph N/A   Mostly Cloudy
2:12 PM 37.4 °F 25.9 °F 24.8 °F 60% 29.97 in 10.0 mi NW 25.3 mph 33.4 mph N/A   Overcast
2:32 PM 37.4 °F 26.1 °F 21.2 °F 52% 29.97 in 10.0 mi NW 24.2 mph 36.8 mph N/A   Mostly Cloudy
2:53 PM 37.4 °F 26.4 °F 21.2 °F 52% 29.97 in 10.0 mi NW 23.0 mph 36.8 mph N/A   Scattered Clouds
3:12 PM 37.4 °F 25.0 °F 21.2 °F 52% 29.96 in 10.0 mi NNW 29.9 mph 38.0 mph N/A   Scattered Clouds
3:32 PM 35.6 °F 23.0 °F 19.4 °F 52% 29.97 in 10.0 mi NW 27.6 mph 38.0 mph N/A   Scattered Clouds
3:53 PM 35.6 °F 23.7 °F 19.4 °F 52% 29.97 in 10.0 mi NNW 24.2 mph 34.5 mph N/A   Clear
4:12 PM 35.6 °F 24.0 °F 19.4 °F 52% 29.97 in 10.0 mi NNW 23.0 mph 29.9 mph N/A   Clear
4:32 PM 35.6 °F 22.7 °F 17.6 °F 48% 29.98 in 10.0 mi NNW 28.8 mph 34.5 mph N/A   Scattered Clouds
4:53 PM 35.6 °F 24.2 °F 17.6 °F 48% 29.99 in 10.0 mi NNW 21.9 mph 29.9 mph N/A   Mostly Cloudy
5:12 PM 33.8 °F 23.9 °F 17.6 °F 52% 30.00 in 10.0 mi NNW 15.0 mph 32.2 mph N/A   Mostly Cloudy
5:33 PM 33.8 °F 21.9 °F 17.6 °F 52% 30.00 in 10.0 mi NNW 21.9 mph 33.4 mph N/A   Overcast
5:53 PM 32.0 °F 20.5 °F 19.4 °F 60% 30.01 in 10.0 mi NW 18.4 mph 31.1 mph N/A   Overcast
6:12 PM 32.0 °F 19.8 °F 19.4 °F 60% 30.01 in 10.0 mi NNW 20.7 mph 28.8 mph N/A   Overcast
6:32 PM 32.0 °F 18.4 °F 17.6 °F 55% 30.02 in 10.0 mi NNW 26.5 mph 32.2 mph N/A   Overcast
6:53 PM 30.2 °F 16.5 °F 17.6 °F 60% 30.03 in 10.0 mi NW 24.2 mph 33.4 mph N/A   Overcast
7:12 PM 30.2 °F 16.5 °F 19.4 °F 64% 30.04 in 10.0 mi NW 24.2 mph 31.1 mph N/A   Overcast
7:32 PM 30.2 °F 18.1 °F 19.4 °F 64% 30.04 in 10.0 mi NNW 18.4 mph 26.5 mph N/A   Mostly Cloudy
7:53 PM 30.2 °F 16.2 °F 17.6 °F 60% 30.05 in 10.0 mi NNW 25.3 mph 34.5 mph N/A   Overcast
8:12 PM 28.4 °F 15.4 °F 17.6 °F 64% 30.06 in 10.0 mi NNW 19.6 mph 32.2 mph N/A   Mostly Cloudy
8:32 PM 28.4 °F 15.1 °F 17.6 °F 64% 30.06 in 10.0 mi NNW 20.7 mph 28.8 mph N/A   Mostly Cloudy
8:53 PM 28.4 °F 14.1 °F 17.6 °F 64% 30.08 in 10.0 mi NNW 24.2 mph 29.9 mph N/A   Scattered Clouds
9:12 PM 26.6 °F 13.4 °F 19.4 °F 74% 30.09 in 10.0 mi NNW 18.4 mph - N/A   Clear
9:32 PM 26.6 °F 11.7 °F 17.6 °F 69% 30.10 in 10.0 mi NW 24.2 mph 31.1 mph N/A   Scattered Clouds
9:53 PM 26.6 °F 12.7 °F 17.6 °F 69% 30.10 in 10.0 mi NNW 20.7 mph 27.6 mph N/A   Clear
10:12 PM 26.6 °F 12.7 °F 17.6 °F 69% 30.11 in 10.0 mi NNW 20.7 mph 32.2 mph N/A   Clear
10:32 PM 24.8 °F 10.0 °F 15.8 °F 69% 30.12 in 10.0 mi NW 21.9 mph 31.1 mph N/A   Clear
11:12 PM 24.8 °F 10.3 °F 15.8 °F 69% 30.12 in 10.0 mi NNW 20.7 mph 31.1 mph N/A   Clear
11:32 PM 24.8 °F 11.1 °F 17.6 °F 74% 30.13 in 10.0 mi NNW 18.4 mph 27.6 mph N/A   Clear
11:53 PM 23.0 °F 8.7 °F 15.8 °F 74% 30.14 in 10.0 mi NNW 18.4 mph 27.6 mph N/A   Clear